Location: Pisa
(43.7170°N, 10.3830°E)
Time: 22:03:23
(UTC+02:00)

ISS - Pass Details

Date: 13 May 2021
Orbit: 417 x 422 km, 51.6° (Epoch: 12 June)

Event Time Altitude Azimuth Distance (km) Brightness Sun altitude
Exits shadow 02:04:23 19° 337° (NNW) 1,062 -1.2 -26.9°
Maximum altitude 02:05:09 21° 356° (N) 1,012 -1.1 -26.8°
Drops below altitude 10° 02:07:48 10° 48° (NE) 1,508 -0.3 -26.7°
Sets 02:10:16 0° 65° (ENE) 2,374 0.6 -26.6°
